Year,Month,Day,Hour,Minute,Value (Times are PST for temperature in C)
2018,07,04,00,00,14.30
2018,07,04,00,01,14.30
2018,07,04,00,02,14.30
2018,07,04,00,03,14.20
2018,07,04,00,04,14.20
2018,07,04,00,05,14.20
2018,07,04,00,06,14.20
2018,07,04,00,07,14.20
2018,07,04,00,08,14.20
2018,07,04,00,09,14.10
2018,07,04,00,10,14.10
2018,07,04,00,11,14.10
2018,07,04,00,12,14.10
2018,07,04,00,13,14.10
2018,07,04,00,14,14.10
2018,07,04,00,15,14.00
2018,07,04,00,16,14.00
2018,07,04,00,17,14.00
2018,07,04,00,18,14.00
2018,07,04,00,19,14.00
2018,07,04,00,20,13.90
2018,07,04,00,21,13.90
2018,07,04,00,22,13.90
2018,07,04,00,23,13.90
2018,07,04,00,24,13.90
2018,07,04,00,25,13.90
2018,07,04,00,26,13.90
2018,07,04,00,27,13.90
2018,07,04,00,28,13.90
2018,07,04,00,29,13.90
2018,07,04,00,30,13.90
2018,07,04,00,31,13.90
2018,07,04,00,32,13.90
2018,07,04,00,33,13.90
2018,07,04,00,34,13.90
2018,07,04,00,35,13.90
2018,07,04,00,36,13.90
2018,07,04,00,37,13.80
2018,07,04,00,38,13.80
2018,07,04,00,39,13.80
2018,07,04,00,40,13.80
2018,07,04,00,41,13.80
2018,07,04,00,42,13.80
2018,07,04,00,43,13.80
2018,07,04,00,44,13.80
2018,07,04,00,45,13.80
2018,07,04,00,46,13.80
2018,07,04,00,47,13.80
2018,07,04,00,48,13.80
2018,07,04,00,49,13.70
2018,07,04,00,50,13.70
2018,07,04,00,51,13.70
2018,07,04,00,52,13.70
2018,07,04,00,53,13.60
2018,07,04,00,54,13.60
2018,07,04,00,55,13.70
2018,07,04,00,56,13.70
2018,07,04,00,57,13.70
2018,07,04,00,58,13.70
2018,07,04,00,59,13.70
2018,07,04,01,00,13.70
2018,07,04,01,01,13.70
2018,07,04,01,02,13.60
2018,07,04,01,03,13.60
2018,07,04,01,04,13.60
2018,07,04,01,05,13.60
2018,07,04,01,06,13.60
2018,07,04,01,07,13.60
2018,07,04,01,08,13.60
2018,07,04,01,09,13.60
2018,07,04,01,10,13.60
2018,07,04,01,11,13.60
2018,07,04,01,12,13.60
2018,07,04,01,13,13.60
2018,07,04,01,14,13.60
2018,07,04,01,15,13.50
2018,07,04,01,16,13.50
2018,07,04,01,17,13.50
2018,07,04,01,18,13.50
2018,07,04,01,19,13.50
2018,07,04,01,20,13.50
2018,07,04,01,21,13.50
2018,07,04,01,22,13.40
2018,07,04,01,23,13.40
2018,07,04,01,24,13.40
2018,07,04,01,25,13.40
2018,07,04,01,26,13.40
2018,07,04,01,27,13.40
2018,07,04,01,28,13.40
2018,07,04,01,29,13.40
2018,07,04,01,30,13.40
2018,07,04,01,31,13.40
2018,07,04,01,32,13.40
2018,07,04,01,33,13.40
2018,07,04,01,34,13.40
2018,07,04,01,35,13.40
2018,07,04,01,36,13.40
2018,07,04,01,37,13.30
2018,07,04,01,38,13.30
2018,07,04,01,39,13.30
2018,07,04,01,40,13.30
2018,07,04,01,41,13.30
2018,07,04,01,42,13.30
2018,07,04,01,43,13.30
2018,07,04,01,44,13.30
2018,07,04,01,45,13.30
2018,07,04,01,46,13.30
2018,07,04,01,47,13.20
2018,07,04,01,48,13.20
2018,07,04,01,49,13.20
2018,07,04,01,50,13.20
2018,07,04,01,51,13.20
2018,07,04,01,52,13.20
2018,07,04,01,53,13.20
2018,07,04,01,54,13.20
2018,07,04,01,55,13.20
2018,07,04,01,56,13.20
2018,07,04,01,57,13.20
2018,07,04,01,58,13.20
2018,07,04,01,59,13.20
2018,07,04,02,00,13.20
2018,07,04,02,01,13.20
2018,07,04,02,02,13.10
2018,07,04,02,03,13.10
2018,07,04,02,04,13.10
2018,07,04,02,05,13.10
2018,07,04,02,06,13.10
2018,07,04,02,07,13.10
2018,07,04,02,08,13.10
2018,07,04,02,09,13.00
2018,07,04,02,10,13.00
2018,07,04,02,11,13.00
2018,07,04,02,12,13.00
2018,07,04,02,13,13.00
2018,07,04,02,14,13.00
2018,07,04,02,15,13.00
2018,07,04,02,16,13.00
2018,07,04,02,17,13.00
2018,07,04,02,18,13.00
2018,07,04,02,19,13.00
2018,07,04,02,20,13.00
2018,07,04,02,21,13.00
2018,07,04,02,22,13.00
2018,07,04,02,23,12.90
2018,07,04,02,24,12.90
2018,07,04,02,25,12.90
2018,07,04,02,26,12.90
2018,07,04,02,27,12.90
2018,07,04,02,28,12.90
2018,07,04,02,29,12.90
2018,07,04,02,30,12.90
2018,07,04,02,31,12.90
2018,07,04,02,32,12.90
2018,07,04,02,33,12.90
2018,07,04,02,34,12.90
2018,07,04,02,35,12.90
2018,07,04,02,36,12.90
2018,07,04,02,37,12.90
2018,07,04,02,38,12.90
2018,07,04,02,39,12.90
2018,07,04,02,40,12.90
2018,07,04,02,41,12.90
2018,07,04,02,42,12.90
2018,07,04,02,43,12.90
2018,07,04,02,44,12.90
2018,07,04,02,45,12.90
2018,07,04,02,46,12.90
2018,07,04,02,47,12.90
2018,07,04,02,48,12.90
2018,07,04,02,49,12.90
2018,07,04,02,50,12.90
2018,07,04,02,51,12.90
2018,07,04,02,52,12.90
2018,07,04,02,53,12.90
2018,07,04,02,54,12.90
2018,07,04,02,55,12.90
2018,07,04,02,56,12.90
2018,07,04,02,57,12.90
2018,07,04,02,58,12.90
2018,07,04,02,59,12.90
2018,07,04,03,00,12.90
2018,07,04,03,01,12.90
2018,07,04,03,02,12.90
2018,07,04,03,03,12.90
2018,07,04,03,04,12.90
2018,07,04,03,05,12.90
2018,07,04,03,06,12.90
2018,07,04,03,07,12.90
2018,07,04,03,08,12.90
2018,07,04,03,09,12.90
2018,07,04,03,10,12.90
2018,07,04,03,11,12.90
2018,07,04,03,12,12.90
2018,07,04,03,13,12.90
2018,07,04,03,14,12.90
2018,07,04,03,15,12.90
2018,07,04,03,16,12.90
2018,07,04,03,17,13.00
2018,07,04,03,18,13.00
2018,07,04,03,19,13.00
2018,07,04,03,20,13.00
2018,07,04,03,21,13.00
2018,07,04,03,22,13.00
2018,07,04,03,23,13.00
2018,07,04,03,24,12.90
2018,07,04,03,25,12.90
2018,07,04,03,26,12.90
2018,07,04,03,27,12.90
2018,07,04,03,28,12.90
2018,07,04,03,29,12.90
2018,07,04,03,30,12.90
2018,07,04,03,31,12.90
2018,07,04,03,32,12.80
2018,07,04,03,33,12.80
2018,07,04,03,34,12.80
2018,07,04,03,35,12.80
2018,07,04,03,36,12.80
2018,07,04,03,37,12.80
2018,07,04,03,38,12.80
2018,07,04,03,39,12.80
2018,07,04,03,40,12.80
2018,07,04,03,41,12.80
2018,07,04,03,42,12.80
2018,07,04,03,43,12.80
2018,07,04,03,44,12.70
2018,07,04,03,45,12.70
2018,07,04,03,46,12.70
2018,07,04,03,47,12.70
2018,07,04,03,48,12.70
2018,07,04,03,49,12.70
2018,07,04,03,50,12.70
2018,07,04,03,51,12.70
2018,07,04,03,52,12.70
2018,07,04,03,53,12.70
2018,07,04,03,54,12.70
2018,07,04,03,55,12.70
2018,07,04,03,56,12.60
2018,07,04,03,57,12.70
2018,07,04,03,58,12.60
2018,07,04,03,59,12.70
2018,07,04,04,00,12.60
2018,07,04,04,01,12.60
2018,07,04,04,02,12.60
2018,07,04,04,03,12.60
2018,07,04,04,04,12.60
2018,07,04,04,05,12.60
2018,07,04,04,06,12.60
2018,07,04,04,07,12.60
2018,07,04,04,08,12.60
2018,07,04,04,09,12.60
2018,07,04,04,10,12.60
2018,07,04,04,11,12.60
2018,07,04,04,12,12.60
2018,07,04,04,13,12.50
2018,07,04,04,14,12.50
2018,07,04,04,15,12.50
2018,07,04,04,16,12.50
2018,07,04,04,17,12.40
2018,07,04,04,18,12.50
2018,07,04,04,19,12.40
2018,07,04,04,20,12.40
2018,07,04,04,21,12.40
2018,07,04,04,22,12.40
2018,07,04,04,23,12.40
2018,07,04,04,24,12.40
2018,07,04,04,25,12.40
2018,07,04,04,26,12.40
2018,07,04,04,27,12.40
2018,07,04,04,28,12.40
2018,07,04,04,29,12.40
2018,07,04,04,30,12.40
2018,07,04,04,31,12.40
2018,07,04,04,32,12.40
2018,07,04,04,33,12.40
2018,07,04,04,34,12.40
2018,07,04,04,35,12.40
2018,07,04,04,36,12.40
2018,07,04,04,37,12.40
2018,07,04,04,38,12.40
2018,07,04,04,39,12.40
2018,07,04,04,40,12.40
2018,07,04,04,41,12.40
2018,07,04,04,42,12.40
2018,07,04,04,43,12.40
2018,07,04,04,44,12.40
2018,07,04,04,45,12.30
2018,07,04,04,46,12.30
2018,07,04,04,47,12.30
2018,07,04,04,48,12.30
2018,07,04,04,49,12.30
2018,07,04,04,50,12.30
2018,07,04,04,51,12.30
2018,07,04,04,52,12.30
2018,07,04,04,53,12.30
2018,07,04,04,54,12.40
2018,07,04,04,55,12.40
2018,07,04,04,56,12.40
2018,07,04,04,57,12.40
2018,07,04,04,58,12.40
2018,07,04,04,59,12.40
2018,07,04,05,00,12.40
2018,07,04,05,01,12.40
2018,07,04,05,02,12.40
2018,07,04,05,03,12.40
2018,07,04,05,04,12.40
2018,07,04,05,05,12.40
2018,07,04,05,06,12.40
2018,07,04,05,07,12.40
2018,07,04,05,08,12.40
2018,07,04,05,09,12.40
2018,07,04,05,10,12.40
2018,07,04,05,11,12.50
2018,07,04,05,12,12.40
2018,07,04,05,13,12.50
2018,07,04,05,14,12.50
2018,07,04,05,15,12.50
2018,07,04,05,16,12.50
2018,07,04,05,17,12.50
2018,07,04,05,18,12.50
2018,07,04,05,19,12.50
2018,07,04,05,20,12.50
2018,07,04,05,21,12.60
2018,07,04,05,22,12.50
2018,07,04,05,23,12.50
2018,07,04,05,24,12.50
2018,07,04,05,25,12.50
2018,07,04,05,26,12.50
2018,07,04,05,27,12.50
2018,07,04,05,28,12.50
2018,07,04,05,29,12.50
2018,07,04,05,30,12.50
2018,07,04,05,31,12.50
2018,07,04,05,32,12.50
2018,07,04,05,33,12.50
2018,07,04,05,34,12.50
2018,07,04,05,35,12.50
2018,07,04,05,36,12.40
2018,07,04,05,37,12.40
2018,07,04,05,38,12.40
2018,07,04,05,39,12.40
2018,07,04,05,40,12.40
2018,07,04,05,41,12.40
2018,07,04,05,42,12.40
2018,07,04,05,43,12.40
2018,07,04,05,44,12.40
2018,07,04,05,45,12.40
2018,07,04,05,46,12.40
2018,07,04,05,47,12.40
2018,07,04,05,48,12.40
2018,07,04,05,49,12.40
2018,07,04,05,50,12.40
2018,07,04,05,51,12.40
2018,07,04,05,52,12.40
2018,07,04,05,53,12.40
2018,07,04,05,54,12.40
2018,07,04,05,55,12.40
2018,07,04,05,56,12.40
2018,07,04,05,57,12.40
2018,07,04,05,58,12.40
2018,07,04,05,59,12.40
2018,07,04,06,00,12.40
2018,07,04,06,01,12.40
2018,07,04,06,02,12.40
2018,07,04,06,03,12.40
2018,07,04,06,04,12.40
2018,07,04,06,05,12.50
2018,07,04,06,06,12.50
2018,07,04,06,07,12.50
2018,07,04,06,08,12.50
2018,07,04,06,09,12.50
2018,07,04,06,10,12.60
2018,07,04,06,11,12.60
2018,07,04,06,12,12.60
2018,07,04,06,13,12.60
2018,07,04,06,14,12.60
2018,07,04,06,15,12.70
2018,07,04,06,16,12.70
2018,07,04,06,17,12.70
2018,07,04,06,18,12.80
2018,07,04,06,19,12.80
2018,07,04,06,20,12.80
2018,07,04,06,21,12.90
2018,07,04,06,22,12.90
2018,07,04,06,23,13.00
2018,07,04,06,24,13.00
2018,07,04,06,25,13.10
2018,07,04,06,26,13.10
2018,07,04,06,27,13.20
2018,07,04,06,28,13.30
2018,07,04,06,29,13.40
2018,07,04,06,30,13.50
2018,07,04,06,31,13.70
2018,07,04,06,32,13.80
2018,07,04,06,33,13.90
2018,07,04,06,34,14.10
2018,07,04,06,35,14.20
2018,07,04,06,36,14.40
2018,07,04,06,37,14.50
2018,07,04,06,38,14.70
2018,07,04,06,39,14.80
2018,07,04,06,40,15.00
2018,07,04,06,41,15.20
2018,07,04,06,42,15.30
2018,07,04,06,43,15.50
2018,07,04,06,44,15.60
2018,07,04,06,45,15.70
2018,07,04,06,46,15.80
2018,07,04,06,47,15.90
2018,07,04,06,48,16.00
2018,07,04,06,49,16.10
2018,07,04,06,50,16.20
2018,07,04,06,51,16.30
2018,07,04,06,52,16.30
2018,07,04,06,53,16.40
2018,07,04,06,54,16.40
2018,07,04,06,55,16.50
2018,07,04,06,56,16.50
2018,07,04,06,57,16.60
2018,07,04,06,58,16.60
2018,07,04,06,59,16.70
2018,07,04,07,00,16.70
2018,07,04,07,01,16.70
2018,07,04,07,02,16.80
2018,07,04,07,03,16.80
2018,07,04,07,04,16.90
2018,07,04,07,05,16.90
2018,07,04,07,06,17.00
2018,07,04,07,07,17.00
2018,07,04,07,08,17.10
2018,07,04,07,09,17.20
2018,07,04,07,10,17.20
2018,07,04,07,11,17.20
2018,07,04,07,12,17.30
2018,07,04,07,13,17.30
2018,07,04,07,14,17.40
2018,07,04,07,15,17.40
2018,07,04,07,16,17.50
2018,07,04,07,17,17.50
2018,07,04,07,18,17.60
2018,07,04,07,19,17.60
2018,07,04,07,20,17.60
2018,07,04,07,21,17.60
2018,07,04,07,22,17.70
2018,07,04,07,23,17.70
2018,07,04,07,24,17.70
2018,07,04,07,25,17.80
2018,07,04,07,26,17.80
2018,07,04,07,27,17.80
2018,07,04,07,28,17.80
2018,07,04,07,29,17.80
2018,07,04,07,30,17.80
2018,07,04,07,31,17.90
2018,07,04,07,32,17.90
2018,07,04,07,33,17.90
2018,07,04,07,34,17.90
2018,07,04,07,35,17.90
2018,07,04,07,36,18.00
2018,07,04,07,37,18.00
2018,07,04,07,38,18.00
2018,07,04,07,39,18.10
2018,07,04,07,40,18.10
2018,07,04,07,41,18.10
2018,07,04,07,42,18.10
2018,07,04,07,43,18.10
2018,07,04,07,44,18.10
2018,07,04,07,45,18.10
2018,07,04,07,46,18.10
2018,07,04,07,47,18.10
2018,07,04,07,48,18.10
2018,07,04,07,49,18.10
2018,07,04,07,50,18.10
2018,07,04,07,51,18.10
2018,07,04,07,52,18.10
2018,07,04,07,53,18.10
2018,07,04,07,54,18.20
2018,07,04,07,55,18.20
2018,07,04,07,56,18.20
2018,07,04,07,57,18.20
2018,07,04,07,58,18.20
2018,07,04,07,59,18.20
2018,07,04,08,00,18.20
2018,07,04,08,01,18.20
2018,07,04,08,02,18.20
2018,07,04,08,03,18.30
2018,07,04,08,04,18.30
2018,07,04,08,05,18.30
2018,07,04,08,06,18.30
2018,07,04,08,07,18.30
2018,07,04,08,08,18.30
2018,07,04,08,09,18.30
2018,07,04,08,10,18.30
2018,07,04,08,11,18.30
2018,07,04,08,12,18.30
2018,07,04,08,13,18.30
2018,07,04,08,14,18.30
2018,07,04,08,15,18.30
2018,07,04,08,16,18.20
2018,07,04,08,17,18.30
2018,07,04,08,18,18.30
2018,07,04,08,19,18.30
2018,07,04,08,20,18.30
2018,07,04,08,21,18.30
2018,07,04,08,22,18.30
2018,07,04,08,23,18.30
2018,07,04,08,24,18.30
2018,07,04,08,25,18.30
2018,07,04,08,26,18.30
2018,07,04,08,27,18.30
2018,07,04,08,28,18.30
2018,07,04,08,29,18.40
2018,07,04,08,30,18.40
2018,07,04,08,31,18.40
2018,07,04,08,32,18.40
2018,07,04,08,33,18.40
2018,07,04,08,34,18.40
2018,07,04,08,35,18.40
2018,07,04,08,36,18.50
2018,07,04,08,37,18.50
2018,07,04,08,38,18.50
2018,07,04,08,39,18.50
2018,07,04,08,40,18.60
2018,07,04,08,41,18.60
2018,07,04,08,42,18.60
2018,07,04,08,43,18.70
2018,07,04,08,44,18.60
2018,07,04,08,45,18.70
2018,07,04,08,46,18.70
2018,07,04,08,47,18.70
2018,07,04,08,48,18.70
2018,07,04,08,49,18.70
2018,07,04,08,50,18.70
2018,07,04,08,51,18.70
2018,07,04,08,52,18.80
2018,07,04,08,53,18.80
2018,07,04,08,54,18.80
2018,07,04,08,55,18.80
2018,07,04,08,56,18.80
2018,07,04,08,57,18.90
2018,07,04,08,58,18.90
2018,07,04,08,59,18.90
2018,07,04,09,00,18.90
2018,07,04,09,01,18.90
2018,07,04,09,02,19.00
2018,07,04,09,03,19.00
2018,07,04,09,04,19.10
2018,07,04,09,05,19.10
2018,07,04,09,06,19.10
2018,07,04,09,07,19.10
2018,07,04,09,08,19.10
2018,07,04,09,09,19.20
2018,07,04,09,10,19.20
2018,07,04,09,11,19.20
2018,07,04,09,12,19.20
2018,07,04,09,13,19.20
2018,07,04,09,14,19.30
2018,07,04,09,15,19.30
2018,07,04,09,16,19.30
2018,07,04,09,17,19.40
2018,07,04,09,18,19.40
2018,07,04,09,19,19.40
2018,07,04,09,20,19.40
2018,07,04,09,21,19.50
2018,07,04,09,22,19.50
2018,07,04,09,23,19.50
2018,07,04,09,24,19.50
2018,07,04,09,25,19.50
2018,07,04,09,26,19.50
2018,07,04,09,27,19.60
2018,07,04,09,28,19.60
2018,07,04,09,29,19.60
2018,07,04,09,30,19.60
2018,07,04,09,31,19.60
2018,07,04,09,32,19.60
2018,07,04,09,33,19.60
2018,07,04,09,34,19.60
2018,07,04,09,35,19.70
2018,07,04,09,36,19.70
2018,07,04,09,37,19.70
2018,07,04,09,38,19.70
2018,07,04,09,39,19.70
2018,07,04,09,40,19.80
2018,07,04,09,41,19.80
2018,07,04,09,42,19.80
2018,07,04,09,43,19.80
2018,07,04,09,44,19.80
2018,07,04,09,45,19.80
2018,07,04,09,46,19.80
2018,07,04,09,47,19.80
2018,07,04,09,48,19.80
2018,07,04,09,49,19.80
2018,07,04,09,50,19.80
2018,07,04,09,51,19.80
2018,07,04,09,52,19.80
2018,07,04,09,53,19.80
2018,07,04,09,54,19.90
2018,07,04,09,55,19.90
2018,07,04,09,56,19.90
2018,07,04,09,57,19.90
2018,07,04,09,58,19.90
2018,07,04,09,59,19.90
2018,07,04,10,00,20.00
2018,07,04,10,01,20.00
2018,07,04,10,02,20.10
2018,07,04,10,03,20.10
2018,07,04,10,04,20.10
2018,07,04,10,05,20.10
2018,07,04,10,06,20.20
2018,07,04,10,07,20.20
2018,07,04,10,08,20.20
2018,07,04,10,09,20.20
2018,07,04,10,10,20.20
2018,07,04,10,11,20.20
2018,07,04,10,12,20.20
2018,07,04,10,13,20.20
2018,07,04,10,14,20.20
2018,07,04,10,15,20.20
2018,07,04,10,16,20.20
2018,07,04,10,17,20.20
2018,07,04,10,18,20.20
2018,07,04,10,19,20.30
2018,07,04,10,20,20.30
2018,07,04,10,21,20.30
2018,07,04,10,22,20.30
2018,07,04,10,23,20.30
2018,07,04,10,24,20.30
2018,07,04,10,25,20.30
2018,07,04,10,26,20.40
2018,07,04,10,27,20.40
2018,07,04,10,28,20.40
2018,07,04,10,29,20.40
2018,07,04,10,30,20.40
2018,07,04,10,31,20.40
2018,07,04,10,32,20.40
2018,07,04,10,33,20.40
2018,07,04,10,34,20.40
2018,07,04,10,35,20.40
2018,07,04,10,36,20.40
2018,07,04,10,37,20.40
2018,07,04,10,38,20.40
2018,07,04,10,39,20.40
2018,07,04,10,40,20.40
2018,07,04,10,41,20.40
2018,07,04,10,42,20.40
2018,07,04,10,43,20.40
2018,07,04,10,44,20.40
2018,07,04,10,45,20.40
2018,07,04,10,46,20.40
2018,07,04,10,47,20.40
2018,07,04,10,48,20.40
2018,07,04,10,49,20.50
2018,07,04,10,50,20.50
2018,07,04,10,51,20.50
2018,07,04,10,52,20.60
2018,07,04,10,53,20.60
2018,07,04,10,54,20.60
2018,07,04,10,55,20.70
2018,07,04,10,56,20.70
2018,07,04,10,57,20.80
2018,07,04,10,58,20.80
2018,07,04,10,59,20.80
2018,07,04,11,00,20.80
2018,07,04,11,01,20.90
2018,07,04,11,02,20.90
2018,07,04,11,03,20.90
2018,07,04,11,04,20.90
2018,07,04,11,05,20.90
2018,07,04,11,06,20.90
2018,07,04,11,07,20.80
2018,07,04,11,08,20.80
2018,07,04,11,09,20.80
2018,07,04,11,10,20.90
2018,07,04,11,11,20.90
2018,07,04,11,12,20.80
2018,07,04,11,13,20.80
2018,07,04,11,14,20.80
2018,07,04,11,15,20.80
2018,07,04,11,16,20.80
2018,07,04,11,17,20.80
2018,07,04,11,18,20.80
2018,07,04,11,19,20.80
2018,07,04,11,20,20.80
2018,07,04,11,21,20.80
2018,07,04,11,22,20.80
2018,07,04,11,23,20.80
2018,07,04,11,24,20.90
2018,07,04,11,25,20.90
2018,07,04,11,26,20.90
2018,07,04,11,27,20.90
2018,07,04,11,28,20.90
2018,07,04,11,29,20.90
2018,07,04,11,30,20.90
2018,07,04,11,31,20.90
2018,07,04,11,32,20.90
2018,07,04,11,33,20.90
2018,07,04,11,34,20.90
2018,07,04,11,35,20.90
2018,07,04,11,36,20.90
2018,07,04,11,37,20.90
2018,07,04,11,38,20.90
2018,07,04,11,39,20.90
2018,07,04,11,40,20.90
2018,07,04,11,41,20.90
2018,07,04,11,42,20.90
2018,07,04,11,43,20.90
2018,07,04,11,44,21.00
2018,07,04,11,45,21.00
2018,07,04,11,46,21.00
2018,07,04,11,47,21.10
2018,07,04,11,48,21.10
2018,07,04,11,49,21.10
2018,07,04,11,50,21.10
2018,07,04,11,51,21.10
2018,07,04,11,52,21.10
2018,07,04,11,53,21.20
2018,07,04,11,54,21.20
2018,07,04,11,55,21.20
2018,07,04,11,56,21.20
2018,07,04,11,57,21.20
2018,07,04,11,58,21.20
2018,07,04,11,59,21.30
2018,07,04,12,00,21.30
2018,07,04,12,01,21.30
2018,07,04,12,02,21.30
2018,07,04,12,03,21.30
2018,07,04,12,04,21.30
2018,07,04,12,05,21.40
2018,07,04,12,06,21.40
2018,07,04,12,07,21.40
2018,07,04,12,08,21.50
2018,07,04,12,09,21.50
2018,07,04,12,10,21.50
2018,07,04,12,11,21.50
2018,07,04,12,12,21.60
2018,07,04,12,13,21.60
2018,07,04,12,14,21.60
2018,07,04,12,15,21.60
2018,07,04,12,16,21.70
2018,07,04,12,17,21.70
2018,07,04,12,18,21.80
2018,07,04,12,19,21.80
2018,07,04,12,20,21.80
2018,07,04,12,21,21.90
2018,07,04,12,22,22.00
2018,07,04,12,23,22.00
2018,07,04,12,24,22.00
2018,07,04,12,25,22.00
2018,07,04,12,26,22.00
2018,07,04,12,27,22.10
2018,07,04,12,28,22.10
2018,07,04,12,29,22.10
2018,07,04,12,30,22.10
2018,07,04,12,31,22.10
2018,07,04,12,32,22.20
2018,07,04,12,33,22.20
2018,07,04,12,34,22.20
2018,07,04,12,35,22.20
2018,07,04,12,36,22.10
2018,07,04,12,37,22.10
2018,07,04,12,38,22.10
2018,07,04,12,39,22.10
2018,07,04,12,40,22.10
2018,07,04,12,41,22.10
2018,07,04,12,42,22.10
2018,07,04,12,43,22.10
2018,07,04,12,44,22.20
2018,07,04,12,45,22.10
2018,07,04,12,46,22.10
2018,07,04,12,47,22.10
2018,07,04,12,48,22.10
2018,07,04,12,49,22.10
2018,07,04,12,50,22.00
2018,07,04,12,51,22.00
2018,07,04,12,52,22.10
2018,07,04,12,53,22.10
2018,07,04,12,54,22.10
2018,07,04,12,55,22.20
2018,07,04,12,56,22.20
2018,07,04,12,57,22.20
2018,07,04,12,58,22.20
2018,07,04,12,59,22.30
2018,07,04,13,00,22.30
2018,07,04,13,01,22.30
2018,07,04,13,02,22.30
2018,07,04,13,03,22.30
2018,07,04,13,04,22.30
2018,07,04,13,05,22.30
2018,07,04,13,06,22.30
2018,07,04,13,07,22.30
2018,07,04,13,08,22.40
2018,07,04,13,09,22.40
2018,07,04,13,10,22.40
2018,07,04,13,11,22.50
2018,07,04,13,12,22.50
2018,07,04,13,13,22.50
2018,07,04,13,14,22.60
2018,07,04,13,15,22.60
2018,07,04,13,16,22.70
2018,07,04,13,17,22.70
2018,07,04,13,18,22.70
2018,07,04,13,19,22.70
2018,07,04,13,20,22.70
2018,07,04,13,21,22.70
2018,07,04,13,22,22.80
2018,07,04,13,23,22.80
2018,07,04,13,24,22.80
2018,07,04,13,25,22.90
2018,07,04,13,26,22.90
2018,07,04,13,27,23.00
2018,07,04,13,28,23.00
2018,07,04,13,29,23.00
2018,07,04,13,30,23.00
2018,07,04,13,31,23.00
2018,07,04,13,32,23.10
2018,07,04,13,33,23.10
2018,07,04,13,34,23.10
2018,07,04,13,35,23.10
2018,07,04,13,36,23.10
2018,07,04,13,37,23.10
2018,07,04,13,38,23.00
2018,07,04,13,39,22.90
2018,07,04,13,40,22.90
2018,07,04,13,41,22.90
2018,07,04,13,42,22.90
2018,07,04,13,43,22.90
2018,07,04,13,44,22.90
2018,07,04,13,45,22.90
2018,07,04,13,46,22.90
2018,07,04,13,47,22.90
2018,07,04,13,48,22.90
2018,07,04,13,49,22.90
2018,07,04,13,50,22.90
2018,07,04,13,51,22.90
2018,07,04,13,52,22.90
2018,07,04,13,53,22.90
2018,07,04,13,54,22.90
2018,07,04,13,55,22.90
2018,07,04,13,56,22.90
2018,07,04,13,57,22.80
2018,07,04,13,58,22.80
2018,07,04,13,59,22.80
2018,07,04,14,00,22.80
2018,07,04,14,01,22.90
2018,07,04,14,02,22.80
2018,07,04,14,03,22.80
2018,07,04,14,04,22.80
2018,07,04,14,05,22.70
2018,07,04,14,06,22.70
2018,07,04,14,07,22.80
2018,07,04,14,08,22.80
2018,07,04,14,09,22.80
2018,07,04,14,10,22.80
2018,07,04,14,11,22.80
2018,07,04,14,12,22.90
2018,07,04,14,13,22.90
2018,07,04,14,14,22.90
2018,07,04,14,15,22.90
2018,07,04,14,16,22.90
2018,07,04,14,17,22.90
2018,07,04,14,18,23.00
2018,07,04,14,19,23.00
2018,07,04,14,20,23.10
2018,07,04,14,21,23.10
2018,07,04,14,22,23.10
2018,07,04,14,23,23.10
2018,07,04,14,24,23.10
2018,07,04,14,25,23.10
2018,07,04,14,26,23.10
2018,07,04,14,27,23.20
2018,07,04,14,28,23.20
2018,07,04,14,29,23.20
2018,07,04,14,30,23.30
2018,07,04,14,31,23.30
2018,07,04,14,32,23.30
2018,07,04,14,33,23.30
2018,07,04,14,34,23.40
2018,07,04,14,35,23.40
2018,07,04,14,36,23.40
2018,07,04,14,37,23.50
2018,07,04,14,38,23.50
2018,07,04,14,39,23.60
2018,07,04,14,40,23.70
2018,07,04,14,41,23.70
2018,07,04,14,42,23.70
2018,07,04,14,43,23.70
2018,07,04,14,44,23.70
2018,07,04,14,45,23.80
2018,07,04,14,46,23.80
2018,07,04,14,47,23.80
2018,07,04,14,48,23.80
2018,07,04,14,49,23.90
2018,07,04,14,50,23.90
2018,07,04,14,51,23.90
2018,07,04,14,52,23.90
2018,07,04,14,53,24.00
2018,07,04,14,54,24.00
2018,07,04,14,55,24.00
2018,07,04,14,56,24.00
2018,07,04,14,57,24.10
2018,07,04,14,58,24.10
2018,07,04,14,59,24.10
2018,07,04,15,00,24.20
2018,07,04,15,01,24.20
2018,07,04,15,02,24.20
2018,07,04,15,03,24.20
2018,07,04,15,04,24.20
2018,07,04,15,05,24.20
2018,07,04,15,06,24.20
2018,07,04,15,07,24.20
2018,07,04,15,08,24.10
2018,07,04,15,09,24.20
2018,07,04,15,10,24.20
2018,07,04,15,11,24.20
2018,07,04,15,12,24.20
2018,07,04,15,13,24.20
2018,07,04,15,14,24.20
2018,07,04,15,15,24.20
2018,07,04,15,16,24.20
2018,07,04,15,17,24.20
2018,07,04,15,18,24.20
2018,07,04,15,19,24.30
2018,07,04,15,20,24.30
2018,07,04,15,21,24.30
2018,07,04,15,22,24.30
2018,07,04,15,23,24.30
2018,07,04,15,24,24.40
2018,07,04,15,25,24.40
2018,07,04,15,26,24.40
2018,07,04,15,27,24.40
2018,07,04,15,28,24.40
2018,07,04,15,29,24.40
2018,07,04,15,30,24.40
2018,07,04,15,31,24.40
2018,07,04,15,32,24.40
2018,07,04,15,33,24.40
2018,07,04,15,34,24.40
2018,07,04,15,35,24.40
2018,07,04,15,36,24.40
2018,07,04,15,37,24.40
2018,07,04,15,38,24.40
2018,07,04,15,39,24.40
2018,07,04,15,40,24.40
2018,07,04,15,41,24.40
2018,07,04,15,42,24.40
2018,07,04,15,43,24.40
2018,07,04,15,44,24.40
2018,07,04,15,45,24.40
2018,07,04,15,46,24.40
2018,07,04,15,47,24.30
2018,07,04,15,48,24.30
2018,07,04,15,49,24.30
2018,07,04,15,50,24.30
2018,07,04,15,51,24.30
2018,07,04,15,52,24.30
2018,07,04,15,53,24.30
2018,07,04,15,54,24.30
2018,07,04,15,55,24.30
2018,07,04,15,56,24.30
2018,07,04,15,57,24.30
2018,07,04,15,58,24.30
2018,07,04,15,59,24.30
2018,07,04,16,00,24.30
2018,07,04,16,01,24.30
2018,07,04,16,02,24.40
2018,07,04,16,03,24.40
2018,07,04,16,04,24.40
2018,07,04,16,05,24.40
2018,07,04,16,06,24.40
2018,07,04,16,07,24.40
2018,07,04,16,08,24.40
2018,07,04,16,09,24.40
2018,07,04,16,10,24.40
2018,07,04,16,11,24.40
2018,07,04,16,12,24.40
2018,07,04,16,13,24.40
2018,07,04,16,14,24.40
2018,07,04,16,15,24.40
2018,07,04,16,16,24.40
2018,07,04,16,17,24.40
2018,07,04,16,18,24.40
2018,07,04,16,19,24.40
2018,07,04,16,20,24.40
2018,07,04,16,21,24.40
2018,07,04,16,22,24.40
2018,07,04,16,23,24.50
2018,07,04,16,24,24.50
2018,07,04,16,25,24.50
2018,07,04,16,26,24.60
2018,07,04,16,27,24.60
2018,07,04,16,28,24.60
2018,07,04,16,29,24.60
2018,07,04,16,30,24.70
2018,07,04,16,31,24.70
2018,07,04,16,32,24.70
2018,07,04,16,33,24.70
2018,07,04,16,34,24.70
2018,07,04,16,35,24.80
2018,07,04,16,36,24.80
2018,07,04,16,37,24.80
2018,07,04,16,38,24.80
2018,07,04,16,39,24.80
2018,07,04,16,40,24.80
2018,07,04,16,41,24.80
2018,07,04,16,42,24.80
2018,07,04,16,43,24.80
2018,07,04,16,44,24.80
2018,07,04,16,45,24.80
2018,07,04,16,46,24.80
2018,07,04,16,47,24.80
2018,07,04,16,48,24.80
2018,07,04,16,49,24.80
2018,07,04,16,50,24.90
2018,07,04,16,51,24.90
2018,07,04,16,52,24.90
2018,07,04,16,53,24.90
2018,07,04,16,54,24.90
2018,07,04,16,55,24.90
2018,07,04,16,56,24.90
2018,07,04,16,57,24.90
2018,07,04,16,58,24.90
2018,07,04,16,59,24.90
2018,07,04,17,00,24.70
2018,07,04,17,01,24.40
2018,07,04,17,02,24.10
2018,07,04,17,03,23.90
2018,07,04,17,04,23.60
2018,07,04,17,05,23.30
2018,07,04,17,06,23.20
2018,07,04,17,07,23.00
2018,07,04,17,08,22.80
2018,07,04,17,09,22.70
2018,07,04,17,10,22.60
2018,07,04,17,11,22.50
2018,07,04,17,12,22.50
2018,07,04,17,13,22.40
2018,07,04,17,14,22.40
2018,07,04,17,15,22.40
2018,07,04,17,16,22.40
2018,07,04,17,17,22.30
2018,07,04,17,18,22.30
2018,07,04,17,19,22.30